Fort Leonard Wood, MO

9:41 PM CST on February 24, 2017 (GMT -0600)
Waynesville Regional At Forney Field

Weather History for KTBN - February, 2013

Change the Weather History Date:

Friday, February 8, 2013

  Actual Average Record
Temperature  
Mean Temperature 34 °F -  
Max Temperature 39 °F 44 °F 68 °F (1999)
Min Temperature 30 °F 29 °F 10 °F (2011)
Degree Days  
Heating Degree Days 30    
Moisture  
Dew Point 32 °F    
Average Humidity 94    
Maximum Humidity 100    
Minimum Humidity 79    
Precipitation  
Precipitation 0.00 in - - ()
Sea Level Pressure  
Sea Level Pressure 30.22 in    
Wind  
Wind Speed 11 mph (NNW)    
Max Wind Speed 17 mph    
Max Gust Speed 23 mph    
Visibility 8 miles    
Events      
Averages and records for this station are not official NWS values.
T = Trace of Precipitation, MM = Missing Value Source: NWS Daily Summary

Daily Weather History Graph

Daily Weather History Graph

Search for Another Location

Airport or City:

Trip Planner

Search our weather history database for the weather conditions in past years. The results will help you decide how hot, cold, wet, or windy it might be!

Date:

Astronomy

Feb. 08, 2013 Rise Set
Actual Time 7:05 AM CST 5:40 PM CST
Civil Twilight 6:38 AM CST 6:07 PM CST
Nautical Twilight 6:07 AM CST 6:38 PM CST
Astronomical Twilight 5:36 AM CST 7:09 PM CST
Moon 5:33 AM CST (2/8) 4:14 PM CST (2/8)
Length of Visible Light 11h 29m
Length of Day
10h 34m
Waning Crescent, 3% of the Moon is Illuminated
Feb 8
Waning Crescent
Feb 10
New
Feb 17
First Quarter
Feb 25
Full
Mar 4
Last Quarter

Hourly Weather History & Observations

Time (CST) Temp. Windchill Dew Point Humidity Pressure Visibility Wind Dir Wind Speed Gust Speed Precip Events Conditions
12:06 AM 39.2 °F 31.6 °F 39.2 °F 100% 30.09 in 7.0 mi NNW 12.7 mph - N/A   Light Drizzle
12:12 AM 39.2 °F 31.6 °F 39.2 °F 100% 30.09 in 6.0 mi NNW 12.7 mph - N/A   Light Drizzle
12:13 AM 39.2 °F 31.6 °F 39.2 °F 100% 30.09 in 6.0 mi NNW 12.7 mph - N/A   Overcast
12:25 AM 37.4 °F 28.5 °F 37.4 °F 100% 30.09 in 5.0 mi NW 15.0 mph - N/A   Light Drizzle
12:39 AM 37.4 °F 28.5 °F 37.4 °F 100% 30.11 in 5.0 mi NNW 15.0 mph 23.0 mph N/A   Overcast
1:00 AM 35.6 °F 27.1 °F 35.6 °F 100% 30.11 in 3.0 mi NNW 12.7 mph - N/A   Light Drizzle
1:08 AM 35.6 °F 27.5 °F 35.6 °F 100% 30.11 in 2.5 mi NNW 11.5 mph - N/A   Light Drizzle
1:10 AM 35.6 °F 26.6 °F 35.6 °F 100% 30.11 in 2.5 mi NNW 13.8 mph - N/A   Light Drizzle
1:21 AM 35.6 °F 27.5 °F 35.6 °F 100% 30.12 in 1.8 mi NNW 11.5 mph - N/A   Light Drizzle
1:22 AM 35.6 °F 27.1 °F 35.6 °F 100% 30.12 in 1.8 mi NNW 12.7 mph - N/A   Overcast
1:24 AM 35.6 °F 27.5 °F 35.6 °F 100% 30.12 in 1.5 mi NNW 11.5 mph - N/A   Overcast
1:28 AM 35.6 °F 25.5 °F 35.6 °F 100% 30.12 in 1.2 mi NW 17.3 mph 21.9 mph N/A   Overcast
1:31 AM 35.6 °F 26.2 °F 35.6 °F 100% 30.12 in 1.5 mi NNW 15.0 mph 21.9 mph N/A   Overcast
1:36 AM 33.8 °F 25.3 °F 33.8 °F 100% 30.12 in 1.8 mi NW 11.5 mph 21.9 mph N/A   Overcast
1:41 AM 33.8 °F 23.9 °F 33.8 °F 100% 30.13 in 2.0 mi NW 15.0 mph - N/A   Overcast
1:55 AM 33.4 °F 24.3 °F 33.4 °F 100% 30.13 in 2.5 mi NW 12.7 mph - 0.00 in   Overcast
1:59 AM 33.8 °F 23.9 °F 33.8 °F 100% 30.13 in 3.0 mi NW 15.0 mph - N/A   Overcast
2:26 AM 33.8 °F 25.3 °F 33.8 °F 100% 30.14 in 4.0 mi NNW 11.5 mph - N/A   Light Drizzle
2:30 AM 33.8 °F 25.8 °F 33.8 °F 100% 30.14 in 5.0 mi NNW 10.4 mph - N/A   Overcast
2:39 AM 33.8 °F 26.4 °F 33.8 °F 100% 30.14 in 10.0 mi NNW 9.2 mph - N/A   Overcast
2:44 AM 33.8 °F 26.4 °F 33.8 °F 100% 30.14 in 10.0 mi NNW 9.2 mph - N/A   Overcast
2:50 AM 33.8 °F 25.8 °F 33.8 °F 100% 30.14 in 10.0 mi NNW 10.4 mph - N/A   Overcast
2:55 AM 33.1 °F 26.1 °F 33.1 °F 100% 30.14 in 10.0 mi NW 8.1 mph - 0.00 in   Overcast
3:03 AM 33.8 °F 24.8 °F 33.8 °F 100% 30.15 in 10.0 mi NNW 12.7 mph - N/A   Overcast
3:55 AM 33.4 °F 25.4 °F 33.1 °F 99% 30.17 in 10.0 mi NW 10.4 mph - N/A   Overcast
4:18 AM 33.8 °F 25.8 °F 33.8 °F 100% 30.17 in 10.0 mi NNW 10.4 mph - N/A   Overcast
4:55 AM 33.4 °F 25.4 °F 31.6 °F 93% 30.19 in 10.0 mi NNW 10.4 mph - N/A   Overcast
5:55 AM 33.6 °F 26.2 °F 31.1 °F 90% 30.22 in 10.0 mi NNW 9.2 mph - N/A   Overcast
6:03 AM 33.8 °F 27.0 °F 32.0 °F 93% 30.22 in 10.0 mi NNW 8.1 mph - N/A   Overcast
6:14 AM 33.8 °F 27.7 °F 32.0 °F 93% 30.23 in 10.0 mi NNW 6.9 mph - N/A   Overcast
6:26 AM 33.8 °F 27.7 °F 30.2 °F 87% 30.24 in 10.0 mi NNW 6.9 mph - N/A   Overcast
6:54 AM 33.8 °F 27.0 °F 30.2 °F 87% 30.25 in 10.0 mi NNW 8.1 mph - N/A   Overcast
6:55 AM 33.6 °F 26.8 °F 30.9 °F 90% 30.25 in 10.0 mi NNW 8.1 mph - N/A   Overcast
7:37 AM 33.8 °F 27.0 °F 30.2 °F 87% 30.28 in 10.0 mi NNW 8.1 mph - N/A   Overcast
7:41 AM 33.8 °F 25.3 °F 30.2 °F 87% 30.28 in 10.0 mi NNW 11.5 mph - N/A   Overcast
7:55 AM 32.7 °F 23.4 °F 30.4 °F 91% 30.28 in 10.0 mi NNW 12.7 mph - N/A   Overcast
8:15 AM 32.0 °F 23.6 °F 30.2 °F 93% 30.29 in 10.0 mi NNW 10.4 mph - N/A   Overcast
8:27 AM 32.0 °F 25.6 °F 30.2 °F 93% 30.30 in 10.0 mi North 6.9 mph - N/A   Overcast
8:55 AM 32.9 °F 24.7 °F 30.4 °F 90% 30.30 in 10.0 mi North 10.4 mph - N/A   Overcast
9:24 AM 32.0 °F 24.8 °F 32.0 °F 100% 30.31 in 10.0 mi North 8.1 mph - N/A   Overcast
9:55 AM 33.1 °F 25.5 °F 30.9 °F 92% 30.33 in 10.0 mi NNW 9.2 mph - N/A   Overcast
10:55 AM 33.1 °F 25.5 °F 30.9 °F 92% 30.34 in 10.0 mi NNW 9.2 mph - N/A   Overcast
11:20 AM 33.8 °F 28.6 °F 32.0 °F 93% 30.35 in 10.0 mi North 5.8 mph - N/A   Overcast
11:55 AM 33.4 °F 26.6 °F 30.4 °F 89% 30.33 in 10.0 mi North 8.1 mph - N/A   Overcast
12:03 PM 33.8 °F 28.6 °F 30.2 °F 87% 30.33 in 10.0 mi North 5.8 mph - N/A   Overcast
12:39 PM 33.8 °F 27.0 °F 30.2 °F 87% 30.32 in 10.0 mi ENE 8.1 mph - N/A   Overcast
12:55 PM 35.1 °F - 30.0 °F 82% 30.32 in 10.0 mi Calm Calm - N/A   Overcast
1:55 PM 35.6 °F 31.7 °F 30.2 °F 81% 30.30 in 10.0 mi Variable 4.6 mph - N/A   Overcast
2:55 PM 36.7 °F - 30.7 °F 79% 30.33 in 10.0 mi Calm Calm - N/A   Overcast
3:55 PM 35.8 °F 33.0 °F 29.8 °F 79% 30.34 in 10.0 mi North 3.5 mph - N/A   Overcast
4:55 PM 34.0 °F 27.2 °F 29.7 °F 84% 30.31 in 10.0 mi ENE 8.1 mph - N/A   Overcast
5:55 PM 33.3 °F 27.1 °F 28.8 °F 84% 30.31 in 10.0 mi ENE 6.9 mph - N/A   Overcast
6:16 PM 32.0 °F 28.7 °F 28.4 °F 87% 30.32 in 10.0 mi ENE 3.5 mph - N/A   Overcast
6:55 PM 32.4 °F 25.3 °F 28.6 °F 86% 30.33 in 10.0 mi East 8.1 mph - N/A   Overcast
7:55 PM 32.4 °F 27.9 °F 29.3 °F 88% 30.34 in 10.0 mi Variable 4.6 mph - N/A   Overcast
8:55 PM 31.3 °F 22.7 °F 28.4 °F 89% 30.32 in 10.0 mi ESE 10.4 mph - N/A   Overcast
9:55 PM 31.1 °F 24.5 °F 28.8 °F 91% 30.31 in 10.0 mi East 6.9 mph - N/A   Overcast
10:55 PM 30.7 °F 24.1 °F 28.8 °F 92% 30.30 in 10.0 mi East 6.9 mph - N/A   Overcast
11:04 PM 30.2 °F 21.9 °F 28.4 °F 93% 30.30 in 10.0 mi East 9.2 mph - N/A   Overcast
11:55 PM 30.7 °F 23.3 °F 29.1 °F 94% 30.30 in 10.0 mi East 8.1 mph - N/A   Overcast